Weather History for KLUK - August, 2013

Change the Weather History Date:

Thursday, August 1, 2013

  Actual Average (KCVG) Record (KCVG)
Temperature  
Mean Temperature 72 °F 76 °F  
Max Temperature 82 °F 85 °F 98 °F (1933)
Min Temperature 62 °F 66 °F 52 °F (1992)
Degree Days  
Heating Degree Days 0 0  
Month to date heating degree days 0  
Since 1 June heating degree days 15  
Since 1 July heating degree days 0  
Cooling Degree Days 8 11  
Month to date cooling degree days 11  
Year to date cooling degree days 670  
Since 1 June cooling degree days 576  
Growing Degree Days 22 (Base 50)    
Moisture  
Dew Point 63 °F    
Average Humidity 75    
Maximum Humidity 96    
Minimum Humidity 42    
Precipitation  
Precipitation 0.00 in 0.13 in 2.03 in (1875)
Month to date precipitation 0.13  
Year to date precipitation 26.51  
Snow  
Snow 0.00 in 0.00 in 0.00 in ()
Month to date snowfall 0.0  
Since 1 June snowfall 0.0  
Since 1 July snowfall 0.0  
Snow Depth -    
Sea Level Pressure  
Sea Level Pressure 29.97 in    
Wind  
Wind Speed 6 mph (WNW)    
Max Wind Speed 14 mph    
Max Gust Speed 18 mph    
Visibility 9 miles    
Events      
T = Trace of Precipitation, MM = Missing Value Source: NWS Daily Summary

Daily Weather History Graph

Daily Weather History Graph

Search for Another Location

Airport or City:

Trip Planner

Search our weather history database for the weather conditions in past years. The results will help you decide how hot, cold, wet, or windy it might be!

Date:

Astronomy

Aug. 01, 2013 Rise Set
Actual Time 6:38 AM EDT 8:49 PM EDT
Civil Twilight 6:08 AM EDT 9:18 PM EDT
Nautical Twilight 5:32 AM EDT 9:55 PM EDT
Astronomical Twilight 4:52 AM EDT 10:34 PM EDT
Moon 2:14 AM EDT (8/1) 4:56 PM EDT (8/1)
Length of Visible Light 15h 10m
Length of Day
14h 10m
Waning Crescent, 23% of the Moon is Illuminated
Aug 1
Waning Crescent
Aug 6
New
Aug 14
First Quarter
Aug 20
Full
Aug 28
Last Quarter

Hourly Weather History & Observations

Time (EDT) Temp. Heat Index Dew Point Humidity Pressure Visibility Wind Dir Wind Speed Gust Speed Precip Events Conditions
12:53 AM 69.1 °F - 68.0 °F 96% 29.96 in 10.0 mi South 4.6 mph - N/A   Overcast
1:53 AM 68.0 °F - 66.9 °F 96% 29.95 in 10.0 mi South 4.6 mph - N/A   Clear
2:53 AM 68.0 °F - 66.9 °F 96% 29.94 in 9.0 mi South 3.5 mph - N/A   Overcast
3:38 AM 71.6 °F - 68.0 °F 88% 29.94 in 9.0 mi West 4.6 mph - N/A   Overcast
3:53 AM 71.1 °F - 69.1 °F 93% 29.94 in 9.0 mi West 3.5 mph - N/A   Overcast
4:02 AM 71.6 °F - 68.0 °F 88% 29.94 in 9.0 mi WSW 5.8 mph - N/A   Mostly Cloudy
4:08 AM 69.8 °F - 68.0 °F 94% 29.94 in 9.0 mi WSW 4.6 mph - N/A   Scattered Clouds
4:53 AM 69.1 °F - 68.0 °F 96% 29.93 in 8.0 mi West 5.8 mph - N/A   Clear
5:24 AM 69.8 °F - 68.0 °F 94% 29.94 in 8.0 mi West 5.8 mph - N/A   Mostly Cloudy
5:53 AM 70.0 °F - 68.0 °F 93% 29.94 in 9.0 mi WNW 6.9 mph - N/A   Overcast
6:53 AM 70.0 °F - 66.0 °F 87% 29.96 in 7.0 mi NNW 3.5 mph - N/A   Overcast
7:53 AM 70.0 °F - 64.0 °F 81% 29.98 in 9.0 mi NNW 4.6 mph - N/A   Mostly Cloudy
8:39 AM 69.8 °F - 64.4 °F 83% 30.00 in 8.0 mi NNW 12.7 mph - N/A   Mostly Cloudy
8:53 AM 71.1 °F - 64.0 °F 78% 29.99 in 8.0 mi North 13.8 mph 17.3 mph N/A   Scattered Clouds
9:44 AM 71.6 °F - 62.6 °F 73% 30.00 in 8.0 mi North 9.2 mph - N/A   Mostly Cloudy
9:53 AM 71.1 °F - 62.1 °F 73% 29.99 in 8.0 mi NNW 9.2 mph 17.3 mph N/A   Overcast
10:53 AM 72.0 °F - 62.1 °F 71% 30.00 in 9.0 mi NW 5.8 mph - N/A   Mostly Cloudy
11:07 AM 73.4 °F - 62.6 °F 69% 30.01 in 10.0 mi North 9.2 mph - N/A   Scattered Clouds
11:29 AM 73.4 °F - 62.6 °F 69% 30.01 in 9.0 mi NW 6.9 mph - N/A   Mostly Cloudy
11:44 AM 75.2 °F - 62.6 °F 65% 30.01 in 10.0 mi North 5.8 mph - N/A   Mostly Cloudy
11:53 AM 75.9 °F - 63.0 °F 64% 30.00 in 10.0 mi Calm Calm - N/A   Mostly Cloudy
12:53 PM 75.0 °F - 63.0 °F 66% 30.00 in 10.0 mi NW 5.8 mph - N/A   Scattered Clouds
1:53 PM 79.0 °F - 63.0 °F 58% 29.99 in 10.0 mi West 4.6 mph - N/A   Scattered Clouds
2:53 PM 80.1 °F 81.5 °F 63.0 °F 56% 29.98 in 10.0 mi West 8.1 mph - N/A   Scattered Clouds
3:53 PM 81.0 °F 81.6 °F 60.1 °F 49% 29.96 in 10.0 mi NW 11.5 mph 17.3 mph N/A   Clear
4:53 PM 79.0 °F - 57.9 °F 48% 29.95 in 10.0 mi West 12.7 mph 18.4 mph N/A   Partly Cloudy
5:53 PM 80.1 °F 80.6 °F 57.9 °F 47% 29.94 in 10.0 mi West 11.5 mph 18.4 mph N/A   Partly Cloudy
6:53 PM 80.1 °F 80.7 °F 59.0 °F 48% 29.94 in 10.0 mi WNW 9.2 mph - N/A   Partly Cloudy
7:53 PM 79.0 °F - 54.0 °F 42% 29.95 in 10.0 mi NW 11.5 mph 18.4 mph N/A   Partly Cloudy
8:53 PM 75.9 °F - 53.1 °F 45% 29.95 in 10.0 mi Calm Calm - N/A   Clear
9:53 PM 64.9 °F - 60.1 °F 84% 29.97 in 10.0 mi Calm Calm - N/A   Clear
10:53 PM 64.9 °F - 59.0 °F 81% 29.98 in 10.0 mi Calm Calm - N/A   Clear
11:53 PM 62.1 °F - 59.0 °F 90% 29.99 in 10.0 mi Calm Calm - N/A   Clear